This is the latest recevied weather packets stored in our database for station/object N8TWM-13. If no packets are shown the sender has not sent any weather packets the latest 10 day(s).
| Time | Temp. | Humidity | Pressure | Rain* | Wind** | Luminosity | Snow |
|---|---|---|---|---|---|---|---|
| 1777577361 | 10.56° C | 66% | 1014.6 hPa | 0 mm | - | 164 W/m² | - |
| 1777577056 | 10.56° C | 65% | 1014.6 hPa | 0 mm | - | 196 W/m² | - |
| 1777576753 | 10.56° C | 66% | 1014.8 hPa | 0 mm | - | 721 W/m² | - |
| 1777576452 | 10.56° C | 66% | 1014.8 hPa | 0 mm | - | 721 W/m² | - |
| 1777576149 | 10° C | 68% | 1015 hPa | 0 mm | - | 232 W/m² | - |
| 1777575844 | 10° C | 67% | 1015 hPa | 0 mm | - | 221 W/m² | - |
| 1777575541 | 10° C | 64% | 1014.8 hPa | 0 mm | - | 274 W/m² | - |
| 1777575237 | 10.56° C | 67% | 1014.7 hPa | 0 mm | - | 293 W/m² | - |
| 1777574933 | 10.56° C | 65% | 1014.6 hPa | 0 mm | - | 282 W/m² | - |
| 1777574630 | 10.56° C | 66% | 1014.7 hPa | 0 mm | - | 315 W/m² | - |
| 1777574327 | 10.56° C | 66% | 1014.7 hPa | 0 mm | - | 515 W/m² | - |
| 1777574026 | 10.56° C | 69% | 1014.7 hPa | 0 mm | - | 373 W/m² | - |
| 1777573721 | 10° C | 70% | 1014.7 hPa | 0 mm | - | 368 W/m² | - |
| 1777573418 | 9.44° C | 72% | 1014.8 hPa | 0 mm | - | 216 W/m² | - |
| 1777573114 | 9.44° C | 71% | 1014.8 hPa | 0 mm | - | 130 W/m² | - |
| 1777572811 | 9.44° C | 73% | 1014.9 hPa | 0 mm | - | 441 W/m² | - |
| 1777572507 | 10° C | 71% | 1014.9 hPa | 0 mm | - | 220 W/m² | - |
| 1777572202 | 10° C | 70% | 1015 hPa | 0 mm | - | 172 W/m² | - |
| 1777571898 | 9.44° C | 69% | 1014.8 hPa | 0 mm | - | 725 W/m² | - |
| 1777571593 | 8.89° C | 70% | 1014.9 hPa | 0 mm | - | 729 W/m² | - |
| 1777571290 | 8.89° C | 75% | 1015.2 hPa | 0 mm | - | 750 W/m² | - |
| 1777570980 | 8.33° C | 79% | 1015.2 hPa | 0 mm | - | 724 W/m² | - |
| 1777570676 | 7.22° C | 80% | 1015.5 hPa | 0 mm | - | 194 W/m² | - |
| 1777570374 | 6.67° C | 80% | 1015.6 hPa | 0 mm | - | 270 W/m² | - |
| 1777570069 | 8.89° C | 76% | 1015.4 hPa | 0 mm | - | 134 W/m² | - |
* Rain latest hour (hover to see other rain measurements)
** Current wind speed in m/s (hover to see current wind gust speed)